Showing default

SEMI-1L, 66294

Orbit data source: Space-Track

SEMI-1L, 66294 is a Turkish payload satellite in LEO that was launched on Sun, 02 Nov 2025 UTC via an FALCON 9 launch vehicle from the Air Force Eastern Test Range (AFETR). Payload-class satellites include a variety of spacecraft equipped with specific instruments for various scientific and technological missions. These include communications satellites like Starlink; space stations such as the ISS; scientific satellites like the Hubble; Earth observation satellites from companies like Planet Labs, Umbra, and HawkEye 360; GPS; miniature CubeSats for education and research; and military/defense satellites.

Loading next visibility...
Identifier
66294, 2025-248B
Orbit
LEO
Country
Flag of TRTR / TURK
Related business
Manufacturer
UNKTR
Mission
Operational Commercial Communications
Bus & Motor
CUBESAT 6U?, Unknown motor
Mass
12 kg wet, 12 kg dry
Launch date (UTC)
2025-11-02 (8 months ago)
Launch vehicle
FALCON 9
Launch site
Air Force Eastern Test Range (AFETR)
Object type
Payload
Rocket body
Debris
Shape & HBR
Box, 0.1 m
Radar Cross Section
0.008 m², Medium (>0.1 m² and < 1m²)

Expand to show TLE details & history
Last TLE update: 1 day ago

TLE from 1 day ago
0 SEMI-1L
1 66294U 25248B   26170.54665721  .00006735  00000-0  31054-3 0  9997
2 66294  45.4028 108.7808 0001378  72.9309 287.1729 15.21014833 34879
Epoch: 2026-06-19T13:07Z
TLE epoch observation values (Epoch: 2026-06-19T13:07:11.182Z)
Latitude
-0.00001°
Longitude
4.21012°
Altitude
502.542 km
Speed
7.615 km/s
True Right ascension
07h 15m 07s
True Declination
0° 00' 00"
Sunlit
Object was in daylight at epoch
Visualization orbit readout
Latitude
Unknown
Longitude
Unknown
Altitude
Unknown
Speed
Unknown
Apparent Right ascension
Unknown
Apparent Declination
Unknown
Sunlit
N/A
Visualization observer readout
Local Sidereal Time
08:33:38
Azimuth
Unknown
Elevation
Unknown
Doppler factor
Unknown
Orbital elements
Apogee altitude
505.264 km
Perigee altitude
503.367 km
Semi-major axis
6,882.452 km
Eccentricity
0.00014
Inclination
45.4028°
RAAN
108.7808°
Arg. of periapsis
72.9309°
True anomaly
287.15781°
Mean anomaly
287.1729°
Eccentric anomaly
287.16536°
Mean motion
3.80127 °/min
Orbital period
94.71 mins
BSTAR
0.00031054
Loading maneuver chart data...
Computing Atmospheric mass density...
Loading historical data...
Loading historical data...
Loading historical data...
Loading historical data...
Loading historical data...
Loading historical data...
Loading historical data...

Documentation

Showing up to 5 results
|